User: anonymous   Login
Location: Unspecified
(0.0000°N, 0.0000°E)
Time: 07:08:09
(UTC+00:00)
Language:

NOSS 8 (F) - Orbit

View from above orbital plane
View from above orbital plane
View from above satellite
View from above satellite

Ground track
Ground track

The orbit data is extracted from the following two-line orbital elements,

1 18010U 87043F   18209.84170716 0.00000590  00000-0  68664-4 0    07
2 18010  63.3086 138.8434 0898190  51.9565 308.0435 13.45178746    04
Epoch (UTC): 28 July 2018 20:12:03
Eccentricity: 0.0898190
inclination: 63.3086°
perigee height: 419 km
apogee height: 1761 km
right ascension of ascending node: 138.8434°
argument of perigee: 51.9565°
revolutions per day: 13.45178746
mean anomaly at epoch: 308.0435°
orbit number at epoch: 0

The dashed part of the orbit path shows where the satellite is in the earth's shadow,  

DLR